STARLINK-36157, 66933

Orbit data source: Space-Track

STARLINK-36157, 66933 is a payload satellite owned by SpaceX/Seattle (US) in LEO that was launched on Sun, 07 Dec 2025 UTC via an FALCON 9 launch vehicle from the Air Force Western Test Range (AFWTR). Payload-class satellites include a variety of spacecraft equipped with specific instruments for various scientific and technological missions. These include communications satellites like Starlink; space stations such as the ISS; scientific satellites like the Hubble; Earth observation satellites from companies like Planet Labs, Umbra, and HawkEye 360; GPS; miniature CubeSats for education and research; and military/defense satellites.

Loading next visibility...
Identifier
66933, 2025-286J
Orbit
LEO
Country
Flag of USUS
Related business
Manufacturer
SpaceX/Seattle
Mission
Operational Commercial Communications
Bus & Motor
STARLINK V2MO, Unknown motor
Mass
575 kg wet, ~530 kg dry
Launch date (UTC)
2025-12-07 (6 months ago)
Launch vehicle
FALCON 9
Launch site
Air Force Western Test Range (AFWTR)
Object type
Payload
Rocket body
Debris
Shape & HBR
Box + 2 Pan, 17.7 m
Radar Cross Section
36.964 m², Large (>1 m²)

Expand to show TLE details & history
Last TLE update: 9 hours ago

TLE from 9 hours ago
0 STARLINK-36157
1 66933U 25286J   26171.45075498  .00028086  00000-0  83881-3 0  9994
2 66933  53.1583 240.1669 0001445  74.5601 285.5561 15.34417248 31161
Epoch: 2026-06-20T10:49Z
TLE epoch observation values (Epoch: 2026-06-20T10:49:05.230Z)
Latitude
-0.00002°
Longitude
169.2299°
Altitude
463.288 km
Speed
7.636 km/s
True Right ascension
16h 00m 40s
True Declination
0° 00' 00"
Sunlit
Object was in full shadow at epoch
Visualization orbit readout
Latitude
Unknown
Longitude
Unknown
Altitude
Unknown
Speed
Unknown
Apparent Right ascension
Unknown
Apparent Declination
Unknown
Sunlit
N/A
Visualization observer readout
Local Sidereal Time
07:12:40
Azimuth
Unknown
Elevation
Unknown
Doppler factor
Unknown
Orbital elements
Apogee altitude
463.898 km
Perigee altitude
461.921 km
Semi-major axis
6,841.046 km
Eccentricity
0.00014
Inclination
53.1583°
RAAN
240.1669°
Arg. of periapsis
74.5601°
True anomaly
285.54015°
Mean anomaly
285.5561°
Eccentric anomaly
285.54812°
Mean motion
3.83583 °/min
Orbital period
93.85 mins
BSTAR
0.00083881
Loading maneuver chart data...
Computing Atmospheric mass density...
Loading historical data...
Loading historical data...
Loading historical data...
Loading historical data...
Loading historical data...
Loading historical data...
Loading historical data...

Documentation

Showing up to 5 results
|